Location: ?ejeti?ky
(50.4060°N, 14.9016°E)
Time: 15:21:57
(UTC+00:00)

SL-16 R/B - Pass Details

Date: 07 June 2020
Orbit: 986 x 1006 km, 99.5° (Epoch: 09 July)

Event Time Altitude Azimuth Distance (km) Brightness Sun altitude
Exits shadow 01:55:28 - 214° (SW) 2,890 4.3 -7.1°
Reaches altitude 10° 01:55:58 10° 217° (SW) 2,741 4.2 -7.1°
Maximum altitude 02:00:48 24° 269° (W) 1,936 3.7 -6.6°
Drops below altitude 10° 02:05:41 10° 322° (NW) 2,763 5.0 -6.0°
Sets 02:08:44 0° 336° (NNW) 3,720 5.9 -5.7°
